Location: Dalhunden
(48.7742°N, 7.9914°E)
Time: 00:49:37
(UTC+00:00)

Daily predictions for brighter satellites

Satellite Brightness Start Highest point End
(mag) Time Altitude Azimuth Time Altitude Azimuth Time Altitude Azimuth
STARLINK-1247 3.8 00:00:31 10° WNW 00:03:34 48° NNE 00:06:37 10° E
STARLINK-1227 3.8 00:00:59 10° WNW 00:04:01 48° NNE 00:07:02 10° E
ATLAS CENTAUR R/B 3.2 00:02:33 10° NNW 00:04:31 27° NNE 00:07:46 10° E
STARLINK-1226 3.8 00:01:50 10° WNW 00:04:53 49° NNE 00:07:56 10° E
STARLINK-1225 4.5 00:01:46 10° W 00:05:48 50° N 00:09:51 10° ENE
STARLINK-1215 3.8 00:02:46 10° WNW 00:05:50 49° NNE 00:08:52 10° E
STARLINK-1217 3.7 00:04:32 10° WNW 00:07:36 50° NNE 00:10:39 10° E
STARLINK-1229 3.7 00:05:27 10° WNW 00:08:31 51° NNE 00:11:35 10° E
STARLINK-1270 3.7 00:06:19 10° WNW 00:09:23 51° NNE 00:12:27 10° E
Cosmos 1726 3.3 00:07:25 10° NNW 00:10:39 29° W 00:10:54 29° W
GEOS 3 Rocket 3.5 00:07:39 26° SSE 00:10:41 78° SW 00:16:01 10° NW
STARLINK-1189 3.7 00:08:09 10° WNW 00:11:14 52° NNE 00:14:18 10° E
Cosmos 2058 Rocket 3.4 00:07:34 10° N 00:11:57 62° ENE 00:13:46 33° SSE
STARLINK-1188 3.6 00:09:02 10° WNW 00:12:06 53° NNE 00:15:11 10° E
STARLINK-1235 3.3 00:09:44 10° WNW 00:12:49 60° NNE 00:15:53 10° E
Meteor 1-29 2.8 00:09:47 10° NNE 00:13:12 70° ESE 00:13:32 63° SE
STARLINK-1187 3.5 00:10:10 10° WNW 00:13:13 56° NNE 00:16:17 10° E
COSMOS 2455 3.0 00:11:39 34° S 00:14:13 62° ESE 00:20:10 10° NE
Cosmos 2228 3.0 00:10:14 10° NNW 00:14:29 67° W 00:15:32 47° SSW
STARLINK-1191 3.6 00:11:31 10° WNW 00:14:35 54° NNE 00:17:38 10° E
SJ 16-02 4.0 00:12:17 10° N 00:15:23 18° NE 00:18:29 10° E
STARLINK-1221 3.6 00:12:24 10° WNW 00:15:27 54° NNE 00:18:31 10° E
STARLINK-1222 3.5 00:13:17 10° WNW 00:16:20 55° NNE 00:19:24 10° E
STARLINK-1214 3.5 00:14:12 10° WNW 00:17:16 55° NNE 00:20:19 10° E
Cosmos 1953 3.8 00:15:41 10° NW 00:18:53 23° W 00:19:26 23° W
SL-14 R/B 3.8 00:18:39 37° SE 00:19:40 48° E 00:23:25 10° NNE
Cosmos 1340 Rocket 3.9 00:17:05 10° NNW 00:20:36 30° W 00:21:08 28° WSW
IRAS Rocket 4.2 00:17:53 28° SSE 00:20:58 88° ENE 00:26:35 10° NNW
Okean 1-7 Rocket 3.7 00:22:03 39° SSE 00:23:36 68° E 00:28:06 10° NNE
Cosmos 1174 3.4 00:23:33 57° SE 00:23:42 58° ESE 00:27:17 10° NE
Cosmos 1300 3.1 00:19:57 10° N 00:23:44 57° ENE 00:25:04 35° SE
STARLINK-1198 4.5 00:19:48 10° WNW 00:23:51 51° N 00:27:55 10° E
Cosmos 921 Rocket 4.0 00:23:34 27° SE 00:24:57 35° ESE 00:28:52 10° NE
BREEZE M DEB (TANK) 3.0 00:26:49 35° E 00:26:49 35° E 00:28:50 10° E
COSMOS 2487 2.9 00:24:04 10° NW 00:27:18 42° WSW 00:27:18 42° WSW
STARLINK-1199 4.4 00:24:49 10° WNW 00:28:54 52° NNE 00:32:58 10° E
Cosmos 2219 4.2 00:26:51 10° NNW 00:32:19 45° NE 00:37:44 10° SE
STARLINK-1210 4.4 00:29:47 10° WNW 00:33:52 54° NNE 00:37:57 10° E
Cosmos 1626 2.1 00:34:31 48° S 00:35:26 77° E 00:39:09 10° NNE
STARLINK-60 3.3 00:36:27 48° SE 00:36:27 48° SE 00:39:18 10° ENE
Cosmos 1656 Rocket 4.2 00:33:51 24° SW 00:37:07 53° WNW 00:42:37 10° NNE
Cosmos 1606 Rocket 4.3 00:33:46 10° NNW 00:37:46 38° W 00:38:48 32° SW
STARLINK-1219 4.3 00:34:47 10° WNW 00:38:52 55° NNE 00:42:58 10° E
Nadezhda 1 Rocket 4.2 00:35:05 10° N 00:41:15 69° E 00:45:52 19° SSE
FALCON 9 R/B 3.7 00:38:25 27° SSW 00:41:17 34° SSE 00:57:37 10° ESE
STARLINK-1211 4.3 00:39:45 10° WNW 00:43:51 57° NNE 00:47:57 10° E
MOZ.5/SAFIR/RUBIN 5/SL-8 3.8 00:44:16 25° SSE 00:46:58 78° ENE 00:51:37 10° NNW
UNK 4.2 00:44:01 19° SE 00:47:16 59° ENE 00:51:48 10° N
Cosmos 2297 Rocket 3.1 00:42:31 10° NNW 00:48:01 48° NE 00:53:28 10° SE
STARLINK-1245 4.2 00:44:45 10° WNW 00:48:52 59° NNE 00:52:58 10° E
Cosmos 1812 Rocket 4.4 00:46:48 10° N 00:51:09 48° ENE 00:54:30 16° SE
SL-4 R/B 2.4 00:49:13 33° SW 00:51:13 62° SSE 00:55:54 10° ENE
Cosmos 1437 2.6 00:52:48 55° SSE 00:53:16 69° E 00:56:16 10° NNE
STARLINK-1233 4.1 00:49:43 10° WNW 00:53:50 61° NNE 00:57:58 10° E
Cosmos 1674 4.2 00:53:21 21° W 00:54:28 24° WNW 00:57:36 10° NNW
SL-19 R/B 4.2 00:51:35 10° NNE 00:56:57 74° WNW 01:00:03 27° SSW
STARLINK-1204 4.1 00:54:43 10° WNW 00:58:51 64° NNE 01:02:58 10° E
ATLAS CENTAUR R/B 1.4 00:56:57 32° SW 00:58:53 77° NW 01:03:02 10° NE
Cosmos 1777 Rocket 4.3 00:54:28 10° NNW 00:59:31 49° WSW 01:01:54 28° SSW
Timation 2 Rocket 3.9 00:53:37 10° NW 00:59:57 66° WSW 01:04:30 18° SSE
SL-16 R/B 2.5 00:56:01 16° SSE 01:01:04 87° ENE 01:07:17 10° NNW
NOSS 3-4 (A) 3.8 00:57:31 19° WSW 01:01:55 62° NW 01:08:21 10° NE
NOSS 3-4 (C) 3.8 00:57:37 19° WSW 01:02:01 62° NW 01:08:27 10° NE
BREEZE-M R/B 3.6 01:01:07 31° S 01:02:08 36° SSE 01:05:04 10° E
FALCON 9 DEB 4.2 01:02:08 29° SSE 01:02:21 29° SE 01:05:24 10° E
STARLINK-1238 4.0 00:59:40 10° WNW 01:03:49 66° NNE 01:07:57 10° ESE
Cosmos 1602 Rocket 3.9 01:01:57 25° SSE 01:04:16 59° E 01:08:31 10° NNE
STARLINK-29 3.3 01:04:34 43° SSE 01:04:51 44° SE 01:07:56 10° ENE
Cosmos 1455 3.5 01:02:36 10° N 01:06:07 36° ENE 01:09:23 11° SE
ATLAS 3B R/B 2.9 01:00:41 10° NW 01:07:11 50° WSW 01:12:43 15° S
BREEZE-M DEB (TANK) 4.3 01:09:30 11° ESE 01:09:30 11° ESE 01:09:49 10° ESE
STARLINK-1201 3.9 01:04:40 10° WNW 01:08:50 69° NNE 01:12:58 10° ESE
CENTAUR R/B 4.0 01:03:52 10° NW 01:10:46 31° WSW 01:14:47 21° SSW
GP-B 4.2 01:08:12 10° NNE 01:12:26 40° E 01:16:11 12° SSE
BREEZE-M DEB (TANK) 1.0 01:12:39 48° WSW 01:13:13 77° SSE 01:15:30 10° ENE
Meteor 2-1 Rocket 4.2 01:07:56 10° N 01:13:29 85° ENE 01:18:03 16° SSE
STARLINK-1206 3.8 01:09:39 10° WNW 01:13:49 72° NNE 01:17:57 10° ESE
Cosmos-2242 4.3 01:11:43 10° N 01:15:42 37° ENE 01:19:40 10° SE
Cosmos 1745 Rocket 3.9 01:12:45 23° SSW 01:16:44 80° W 01:22:54 10° N
STARLINK-1205 3.8 01:14:38 10° WNW 01:18:48 76° NNE 01:22:57 10° ESE
RESURS DK-1 2.4 01:19:17 28° SW 01:21:20 71° WNW 01:25:29 10° NNE
Cosmos 2227 Rocket 2.4 01:18:00 10° NNW 01:23:43 74° ENE 01:29:23 10° SE
STARLINK-1218 3.7 01:19:36 10° WNW 01:23:46 79° NNE 01:27:55 10° ESE
Cosmos 1356 Rocket 3.6 01:19:44 10° NNW 01:23:47 53° W 01:25:49 27° SSW
Meteor 1-24 Rocket 4.3 01:22:03 22° SW 01:25:06 42° WNW 01:30:14 10° N
CZ-2D R/B 2.1 01:21:25 10° NNE 01:26:44 89° WNW 01:30:15 22° SSW
Cosmos 2369 Rocket 4.4 01:23:08 10° W 01:26:57 18° NW 01:30:47 10° N
Cosmos 1697 Rocket 4.2 01:23:12 10° SSE 01:27:55 29° ESE 01:32:42 10° NE
STARLINK-1254 3.6 01:24:35 10° WNW 01:28:45 83° NNE 01:32:55 10° ESE
ADEOS II 3.1 01:24:22 10° NNE 01:29:22 41° E 01:34:07 11° SSE
Cosmos 1703 4.5 01:26:48 13° SSE 01:29:54 38° E 01:33:34 10° NNE
ATLAS 2AS CENTAUR R/B 3.7 01:23:17 10° WSW 01:31:04 51° NW 01:38:43 10° NE
CZ-4C R/B 4.1 01:30:46 25° SSW 01:32:40 40° W 01:36:47 10° NNW
STARLINK-1231 3.6 01:29:35 10° WNW 01:33:45 88° NNE 01:37:55 10° ESE
STARLINK-1228 3.6 01:32:17 10° WNW 01:35:21 34° SW 01:38:25 10° SSE
Resurs 1-4 Rocket 2.1 01:31:11 10° NNE 01:36:29 74° WNW 01:40:11 20° SSW
STARLINK-1234 3.5 01:33:43 10° WNW 01:36:34 33° SW 01:37:03 31° SSW
STARLINK-1212 3.2 01:35:01 10° WNW 01:37:59 42° SW 01:40:56 10° SE
STARLINK-1105 3.2 01:35:30 10° WNW 01:38:26 41° SW 01:41:23 10° SE
STARLINK-1232 3.5 01:34:34 10° WNW 01:38:44 88° SSW 01:42:54 10° ESE
STARLINK-1209 3.7 01:36:00 10° W 01:38:43 30° SW 01:38:43 30° SW
STARLINK-1247 3.2 01:36:23 10° WNW 01:39:22 41° SW 01:42:19 10° SE
STARLINK-1227 3.2 01:36:52 10° WNW 01:39:49 40° SW 01:42:44 10° SE
USA 81 4.0 01:36:19 19° S 01:40:10 80° W 01:45:30 10° N
STARLINK-1226 3.2 01:37:44 10° WNW 01:40:40 40° SW 01:43:37 10° SE
STARLINK-52 2.8 01:39:41 28° SW 01:41:14 75° SSE 01:44:27 10° ENE
ARIANE 5 R/B 3.9 01:36:51 10° NNE 01:41:25 33° E 01:45:55 10° SSE
STARLINK-1215 3.3 01:38:40 10° WNW 01:41:37 39° SW 01:44:34 10° SE
Cosmos 1758 Rocket 3.7 01:39:23 17° S 01:42:38 71° E 01:47:00 10° NNE
STARLINK-1217 3.3 01:40:26 10° WNW 01:43:22 38° SW 01:46:18 10° SE
STARLINK-1208 3.5 01:39:32 10° WNW 01:43:42 84° SSW 01:47:51 10° ESE
NPP 3.7 01:38:31 10° NNE 01:43:55 75° WNW 01:47:57 18° SSW
STARLINK-1229 3.3 01:41:22 10° WNW 01:44:18 37° SW 01:47:13 10° SE
STARLINK-1270 3.3 01:42:14 10° WNW 01:45:09 37° SW 01:48:04 10° SSE
H-2A R/B 4.0 01:41:33 10° SE 01:45:21 31° ENE 01:49:15 10° N
STARLINK-1189 3.4 01:44:05 10° WNW 01:46:59 35° SW 01:49:52 10° SSE
STARLINK-1188 3.4 01:44:58 10° WNW 01:47:52 35° SW 01:50:45 10° SSE
STARLINK-1235 3.7 01:45:46 10° W 01:48:28 28° SW 01:51:11 10° SSE
STARLINK-1271 3.5 01:44:33 10° WNW 01:48:42 79° SSW 01:52:50 10° ESE
Cosmos 1898 Rocket 3.5 01:43:32 10° NNW 01:48:55 87° WSW 01:54:14 10° SSE
STARLINK-1187 3.6 01:46:08 10° W 01:48:55 31° SW 01:51:42 10° SSE
STARLINK-1191 3.5 01:47:28 10° WNW 01:50:19 33° SW 01:53:08 10° SSE
Lacrosse 4 Rocket 2.9 01:46:30 10° NNW 01:50:41 41° NE 01:54:44 10° ESE
Starlink 7 placeholder 3.4 01:49:43 17° WNW 01:50:49 31° NNW 01:52:38 10° NE
STARLINK-1230 4.5 01:46:45 10° WNW 01:50:50 53° NNE 01:54:54 10° E
STARLINK-1221 3.5 01:48:20 10° WNW 01:51:11 33° SW 01:54:00 10° SSE
Meteor 1-21 Rocket 4.2 01:46:49 17° SSW 01:51:11 80° WNW 01:56:54 10° N
STARLINK-1222 3.5 01:49:15 10° WNW 01:52:04 32° SW 01:54:53 10° SSE
Cosmos 1656 3.8 01:48:20 17° SSW 01:52:47 74° ESE 01:58:25 10° NNE
STARLINK-1214 3.5 01:50:10 10° WNW 01:52:58 32° SW 01:55:46 10° SSE
STARLINK-1154 3.5 01:49:32 10° WNW 01:53:40 75° SSW 01:57:48 10° SE
Cosmos 2285 Rocket 4.2 01:47:58 10° NNW 01:54:23 76° ENE 02:00:43 10° SSE
SJ 16-02 1.3 01:50:02 10° NNW 01:54:26 65° WSW 01:58:49 10° S
CZ-4C R/B 3.1 01:50:43 13° S 01:54:45 37° ESE 02:00:03 10° NE
Cosmos 2084 3.6 01:52:18 19° SW 01:55:29 77° NW 02:00:00 10° NE
STARLINK-1243 4.4 01:51:45 10° WNW 01:55:50 55° NNE 01:59:55 10° E
Cosmos 468 Rocket 4.1 01:52:21 16° SSW 01:56:28 75° ESE 02:01:36 10° NNE
STARLINK-1197 3.5 01:54:30 10° WNW 01:58:38 70° SSW 02:02:46 10° SE
Cosmos 1953 Rocket 4.1 01:54:38 10° S 01:58:57 59° E 02:03:21 10° NNE
Cosmos 1937 Rocket 3.6 01:53:55 10° NNW 01:59:11 85° ENE 02:04:28 10° SSE
COSMOS 2455 4.1 01:55:07 10° WSW 02:00:33 34° NW 02:06:01 10° NNE
STARLINK-1236 4.3 01:56:44 10° WNW 02:00:50 56° NNE 02:04:55 10° E
Cosmos 2369 4.4 01:55:55 11° S 02:01:08 47° ESE 02:06:32 10° NE
Meteor 2-10 Rocket 3.7 01:56:02 10° NNW 02:01:16 55° W 02:06:00 11° S
Cosmos 921 Rocket 4.4 02:00:21 14° WSW 02:03:18 27° WNW 02:07:01 10° N
STARLINK-1198 3.5 01:59:28 10° WNW 02:03:35 66° SSW 02:07:41 10° SE
Cosmos 1709 Rocket 4.1 02:01:48 15° SSW 02:06:55 61° WNW 02:13:01 10° N
STARLINK-1199 3.6 02:04:29 10° WNW 02:08:35 61° SSW 02:12:40 10° SE
STARLINK-1269 4.2 02:06:41 10° WNW 02:10:49 60° NNE 02:14:55 10° E
STARLINK-60 3.9 02:09:16 10° W 02:12:22 46° NNW 02:15:30 10° ENE
STARLINK-1210 3.6 02:09:28 10° WNW 02:13:32 57° SSW 02:17:36 10° SE
STARLINK-1200 4.1 02:11:42 10° WNW 02:15:49 63° NNE 02:19:56 10° E
Cosmos 2219 3.9 02:11:17 10° NW 02:16:21 34° WSW 02:21:22 10° S
STARLINK-1320 3.1 02:14:52 17° SW 02:17:03 55° SSE 02:20:07 10° ENE
STARLINK-1322 3.1 02:15:11 17° SW 02:17:23 55° SSE 02:20:28 10° ENE
STARLINK-1324 3.1 02:15:32 17° SW 02:17:44 56° SSE 02:20:49 10° ENE
STARLINK-1294 3.1 02:15:47 17° SW 02:18:01 56° SSE 02:21:07 10° ENE
STARLINK-1261 3.1 02:16:09 17° SW 02:18:24 56° SSE 02:21:28 10° ENE
STARLINK-1219 3.7 02:14:27 10° WNW 02:18:30 53° SSW 02:22:32 10° SE
STARLINK-1325 3.1 02:16:30 17° SW 02:18:45 57° SSE 02:21:50 10° ENE
STARLINK-1333 3.1 02:16:48 16° SW 02:19:03 57° SSE 02:22:09 10° ENE
STARLINK-1334 3.1 02:17:07 16° SW 02:19:24 57° SSE 02:22:29 10° ENE
STARLINK-1326 3.1 02:17:28 16° SW 02:19:45 58° SSE 02:22:50 10° ENE
Cosmos 1980 Rocket 3.3 02:14:56 10° S 02:20:04 39° ESE 02:25:16 10° NE
STARLINK-1323 3.1 02:17:47 16° SW 02:20:05 58° SSE 02:23:10 10° ENE
STARLINK-1338 3.4 02:17:39 15° SW 02:20:19 56° SSE 02:23:45 10° ENE
STARLINK-1349 3.1 02:18:06 16° SW 02:20:25 58° SSE 02:23:30 10° ENE
STARLINK-1336 3.0 02:18:28 16° SW 02:20:47 59° SSE 02:23:51 10° ENE
STARLINK-1192 4.1 02:16:41 10° WNW 02:20:49 65° NNE 02:24:56 10° ESE
STARLINK-1331 3.0 02:18:45 16° SW 02:21:05 59° SSE 02:24:10 10° ENE
STARLINK-1344 3.0 02:19:05 16° SW 02:21:26 59° SSE 02:24:31 10° ENE
STARLINK-1343 3.0 02:19:25 16° SW 02:21:46 60° SSE 02:24:51 10° ENE
CRYOSAT 2 4.4 02:17:08 10° N 02:22:02 71° W 02:26:54 10° SSW
STARLINK-1346 3.0 02:19:43 15° SW 02:22:08 60° SSE 02:25:15 10° ENE
STARLINK-1328 3.0 02:20:05 15° SW 02:22:28 60° SSE 02:25:33 10° ENE
CZ-4B R/B 4.4 02:21:02 10° E 02:22:43 14° ENE 02:24:25 10° NNE
STARLINK-1354 3.0 02:20:22 15° SW 02:22:46 61° SSE 02:25:51 10° ENE
Cosmos 1328 3.9 02:19:19 13° SSW 02:22:50 60° WNW 02:26:48 10° N
STARLINK-1347 3.0 02:20:44 15° SW 02:23:07 61° SSE 02:26:13 10° ENE
STARLINK-1211 3.8 02:19:26 10° WNW 02:23:27 50° SW 02:27:27 10° SE
STARLINK-1357 3.0 02:21:01 15° SW 02:23:27 61° SSE 02:26:33 10° ENE
STARLINK-1335 3.0 02:21:22 15° SW 02:23:48 62° SSE 02:26:53 10° ENE
STARLINK-1327 3.0 02:21:41 15° SW 02:24:07 62° SSE 02:27:13 10° ENE
STARLINK-1371 3.4 02:21:31 14° SW 02:24:21 59° SSE 02:27:48 10° ENE
STARLINK-1340 3.0 02:22:01 15° SW 02:24:28 63° SSE 02:27:35 10° ENE
STARLINK-1356 3.0 02:22:21 15° SW 02:24:49 63° SSE 02:27:55 10° ENE
ERS-2 2.1 02:21:14 10° SSE 02:24:54 85° WSW 02:28:36 10° NNW
STARLINK-1345 3.0 02:22:41 15° SW 02:25:10 63° SSE 02:28:15 10° ENE
STARLINK-1355 3.0 02:22:59 15° SW 02:25:29 64° SSE 02:28:36 10° ENE
ERBS 4.3 02:22:37 10° NW 02:25:41 32° NNE 02:28:45 10° E
STARLINK-1244 4.0 02:21:39 10° WNW 02:25:47 68° NNE 02:29:55 10° ESE
STARLINK-1321 3.0 02:23:18 14° SW 02:25:48 64° SSE 02:28:55 10° ENE
STARLINK-1358 3.0 02:23:39 14° SW 02:26:11 65° SSE 02:29:16 10° ENE
STARLINK-1341 3.3 02:23:29 14° SW 02:26:22 61° SSE 02:29:51 10° ENE
STARLINK-1332 2.9 02:23:57 14° SW 02:26:29 65° SSE 02:29:35 10° ENE
STARLINK-1348 2.9 02:24:18 14° SW 02:26:51 65° SSE 02:29:57 10° ENE
STARLINK-1330 2.9 02:24:36 14° SW 02:27:10 66° SSE 02:30:16 10° ENE
STARLINK-1363 2.9 02:24:56 14° SW 02:27:29 66° SSE 02:30:37 10° ENE
IRS-1C 4.2 02:22:18 10° NNE 02:27:40 81° WNW 02:33:00 10° SSW
STARLINK-1337 2.9 02:25:15 14° SW 02:27:50 66° SSE 02:30:56 10° ENE
STARLINK-1342 2.9 02:25:35 14° SW 02:28:11 67° SSE 02:31:17 10° ENE
STARLINK-1374 3.3 02:25:26 13° SW 02:28:26 63° SSE 02:31:55 10° ENE
STARLINK-1245 3.9 02:24:27 10° WNW 02:28:26 46° SW 02:32:23 10° SE
STARLINK-1364 2.9 02:25:55 14° SW 02:28:31 67° SSE 02:31:38 10° ENE
STARLINK-1376 2.9 02:26:15 14° SW 02:28:53 68° SSE 02:31:59 10° ENE
STARLINK-1360 2.9 02:26:30 13° SW 02:29:09 68° SSE 02:32:15 10° ENE
STARLINK-1361 2.9 02:26:56 13° SW 02:29:35 68° SSE 02:32:41 10° ENE
STARLINK-1367 2.9 02:27:10 13° SW 02:29:51 69° SSE 02:33:00 10° ENE
STARLINK-1366 2.9 02:27:33 13° SW 02:30:13 69° SSE 02:33:19 10° ENE
CZ-4B R/B 4.4 02:25:50 10° N 02:30:29 36° WNW 02:35:12 10° SW
STARLINK-1339 3.3 02:27:27 13° SW 02:30:31 66° SSE 02:34:00 10° ENE
STARLINK-1138 3.9 02:26:38 10° WNW 02:30:46 71° NNE 02:34:55 10° ESE
SL-4 R/B 2.7 02:26:16 10° W 02:31:03 65° N 02:35:38 10° ENE
Cosmos 2297 Rocket 2.9 02:26:54 10° NW 02:31:52 32° WSW 02:36:48 10° SSW
STARLINK-1377 3.2 02:29:28 12° SW 02:32:36 68° SSE 02:36:06 10° ENE
STARLINK-1233 3.9 02:29:26 10° WNW 02:33:22 43° SW 02:37:17 10° SE
STARLINK-1203 3.9 02:29:26 10° WNW 02:33:39 74° NNE 02:37:51 10° ESE
STARLINK-1353 3.2 02:31:17 12° SW 02:34:28 69° SSE 02:37:56 10° ENE
STARLINK-1143 3.9 02:31:36 10° WNW 02:35:46 75° NNE 02:39:55 10° ESE
Cosmos 2082 3.8 02:30:14 10° NW 02:35:47 57° WSW 02:41:16 10° S
STARLINK-1375 3.2 02:33:04 11° SW 02:36:20 71° SSE 02:39:48 10° ENE
Cosmos 540 Rocket 3.6 02:33:03 10° SSW 02:38:10 74° ESE 02:43:19 10° NNE
STARLINK-1204 4.0 02:34:27 10° WNW 02:38:20 40° SW 02:42:13 10° SSE
ATLAS CENTAUR R/B 3.6 02:35:30 10° WNW 02:38:24 18° NNW 02:41:11 10° NNE
STARLINK-1350 3.2 02:35:22 11° WSW 02:38:42 74° SSE 02:42:11 10° ENE
FALCON 9 DEB 3.4 02:35:47 10° WSW 02:39:13 65° NNW 02:42:41 10° ENE
STARLINK-1241 3.8 02:36:35 10° WNW 02:40:45 78° NNE 02:44:54 10° ESE
STARLINK-29 3.8 02:37:54 10° W 02:41:00 48° NNW 02:44:06 10° ENE
STARLINK-1352 3.2 02:37:40 10° WSW 02:41:08 77° SSE 02:44:40 10° ENE
Cosmos 1455 3.8 02:38:50 10° NW 02:41:28 18° W 02:44:06 10° SW
Landsat 5 3.8 02:37:18 10° SSE 02:41:48 80° ENE 02:46:21 10° NNW
CZ-2D R/B 3.6 02:37:57 10° NNE 02:42:04 78° ESE 02:46:16 10° S
Cosmos 1825 Rocket 4.4 02:38:22 10° SW 02:42:20 35° WNW 02:46:21 10° N
Cosmos 2278 4.0 02:37:01 10° SSW 02:42:37 68° ESE 02:48:15 10° NNE
STARLINK-1238 4.1 02:39:26 10° WNW 02:43:16 37° SW 02:47:05 10° SSE
STARLINK-1368 3.2 02:39:48 10° WSW 02:43:19 80° SSE 02:46:51 10° ENE
USA 234 4.3 02:37:36 10° ENE 02:43:37 37° SE 02:49:35 10° SSW
Meteor 1-28 Rocket 3.4 02:41:05 10° S 02:44:47 54° W 02:48:31 10° NNW
Meteor 1-11 4.3 02:39:10 10° SSW 02:44:48 74° WNW 02:50:26 10° N
STARLINK-1369 3.2 02:41:44 10° WSW 02:45:13 82° SSE 02:48:44 10° ENE
SL-16 R/B 4.0 02:41:29 10° SW 02:45:28 18° W 02:49:31 10° NW
STARLINK-1239 3.7 02:41:34 10° WNW 02:45:44 82° NNE 02:49:53 10° ESE
ATLAS CENTAUR R/B 3.4 02:43:45 10° W 02:46:53 26° SW 02:53:01 10° SSE
STARLINK-1372 3.2 02:44:10 10° WSW 02:47:42 84° SSE 02:51:15 10° ENE
Cosmos 2263 Rocket 3.2 02:42:19 10° NNW 02:47:49 52° NE 02:53:16 10° SE
Cosmos 2074 Rocket 4.1 02:41:55 10° SSW 02:48:13 74° W 02:54:32 10° N
STARLINK-1201 4.2 02:44:27 10° WNW 02:48:14 34° SW 02:51:59 10° SSE
Cosmos 372 Rocket 3.9 02:44:23 10° NNW 02:49:31 80° WSW 02:54:39 10° SSE
STARLINK-1378 3.2 02:46:23 10° WSW 02:49:55 87° SSE 02:53:28 10° ENE
IRS-1D 4.5 02:45:23 10° N 02:50:15 37° WNW 02:55:03 10° SW
STARLINK-1329 3.2 02:46:54 10° WSW 02:50:26 87° SSE 02:54:00 10° ENE
Cosmos 841 Rocket 3.6 02:45:13 10° SSW 02:50:29 83° WNW 02:55:45 10° NNE
STARLINK-1240 3.7 02:46:33 10° WNW 02:50:43 86° NNE 02:54:52 10° ESE
STARLINK-1365 3.2 02:47:39 10° WSW 02:51:10 90° NNW 02:54:43 10° ENE
STARLINK-1379 3.2 02:48:36 10° WSW 02:52:08 89° SSE 02:55:42 10° ENE
STARLINK-1362 3.2 02:49:11 10° WSW 02:52:44 89° ESE 02:56:18 10° ENE
Cosmos-2242 4.3 02:49:42 10° NW 02:53:03 23° W 02:56:23 10° SW
STARLINK-1206 4.3 02:49:28 10° WNW 02:53:10 32° SW 02:56:52 10° SSE
Cosmos 1869 3.5 02:49:59 10° N 02:53:55 74° E 02:57:47 10° SSE
Cosmos 1892 4.3 02:50:39 10° SSE 02:54:11 36° E 02:57:43 10° NNE
Cosmos 1400 Rocket 3.3 02:50:32 10° NNW 02:54:27 44° W 02:58:23 10° SSW
COBE Rocket 4.2 02:50:07 10° S 02:54:53 50° W 02:59:49 10° NNW
STARLINK-1373 3.2 02:51:29 10° WSW 02:55:02 88° NNW 02:58:36 10° ENE
Cosmos 2221 2.6 02:50:56 10° N 02:55:17 88° ENE 02:59:38 10° S
STARLINK-1216 3.6 02:51:32 10° WNW 02:55:42 90° SSW 02:59:51 10° ESE
